Temperature
17 16 16 16 16 16 16 16 16 16 16 16 15 15 15 15 15 15 16 15 15 16 16 16 15 15 15 15 15 16 15 15 15 15 15 15 15 15 15 15 16 15 15
16 16 16 16 16 16 16 15 16 15 15 15 15 15 14 15 15 14 15 15 14 15 15 15 15 15 15 15 15 15 15 15 15 15 15 15 15 15 15 15 15 15 16
16 16 15 15 15 15 15 15 15 14 14 14 14 14 14 14 13 13 13 13 13 14 14 14 14 14 14 14 14 14 14 14 14 14 15 15 15 15 15 15 15 15 15
16 15 15 14 14 14 14 14 14 13 13 13 13 13 13 12 12 12 12 12 13 13 13 13 13 13 13 14 14 14 14 14 13 14 14 14 14 14 14 14 15 15 14
16 15 14 14 14 13 13 13 12 12 12 12 12 12 12 11 11 12 12 12 12 12 12 12 12 12 12 12 12 12 12 12 12 12 12 12 13 13 14 14 14 14 15
15 14 13 14 13 13 13 13 12 12 11 11 11 11 11 11 11 11 11 11 11 11 11 11 11 12 11 10 11 11 11 11 10 10 11 11 12 12 12 13 13 14 14
14 13 12 13 13 12 12 12 11 11 10 10 9 10 11 11 11 11 10 10 10 11 10 10 10 10 10 9 9 9 9 8 8 8 9 9 10 11 11 12 12 13 13
13 12 12 11 11 10 9 8 8 9 9 9 8 8 10 11 12 11 10 9 9 9 10 9 9 9 8 8 8 8 7 8 8 8 8 8 9 9 10 11 11 11 12
12 12 11 11 10 9 8 7 7 6 7 8 7 7 8 10 8 9 9 9 8 8 8 7 8 7 7 7 7 7 7 6 6 7 7 7 8 9 9 9 10 10 11
10 8 8 7 7 7 6 6 6 5 6 7 7 7 6 6 6 7 7 7 6 6 7 6 7 7 6 6 6 6 6 6 6 6 6 7 7 8 8 8 9 9 10
7 7 7 7 6 6 6 5 5 4 5 5 6 6 5 5 6 6 6 6 6 6 6 6 6 6 6 6 6 6 5 5 5 5 5 6 7 7 8 8 8 9 9
7 6 6 6 5 5 5 5 4 4 4 4 4 4 5 5 5 5 5 5 5 5 6 6 6 6 6 6 5 5 5 4 5 5 5 5 6 6 7 8 8 8 8
7 6 5 5 5 4 4 4 4 3 3 3 3 3 4 4 4 4 4 4 5 5 5 5 5 5 5 5 5 5 4 4 5 5 5 5 5 6 6 7 8 8 8
6 5 5 5 4 4 4 4 4 4 4 3 3 3 3 4 4 4 4 4 4 4 4 4 5 5 5 5 5 5 4 4 4 4 5 5 5 5 6 6 7 7 7
6 5 5 4 4 4 4 4 4 4 4 4 4 3 3 3 3 3 3 3 3 2 2 3 4 4 5 5 4 4 4 4 4 4 4 4 5 5 6 6 6 6 7
5 5 5 4 4 4 4 4 4 5 4 4 4 4 3 3 3 2 2 1 2 2 2 3 3 3 3 4 3 3 4 4 4 4 4 4 4 5 5 5 6 6 6
5 5 5 5 5 5 5 4 4 4 4 4 4 3 3 3 3 2 2 2 1 1 2 2 2 3 3 3 3 3 3 4 4 4 3 3 4 4 5 5 5 5 5
5 5 5 5 5 5 5 5 5 4 4 4 4 3 3 3 2 2 1 1 1 1 1 2 2 3 3 3 3 3 3 4 3 3 3 3 2 3 3 4 4 4 4
5 5 5 5 5 5 5 4 4 3 3 3 2 2 2 2 1 1 1 1 1 1 1 1 2 2 3 3 3 3 3 3 3 2 3 2 2 2 2 3 4 4 4
5 5 5 5 5 5 4 3 2 2 2 1 1 1 1 0 0 -0 -0 -0 -0 -0 0 0 1 2 3 4 3 3 3 3 2 2 2 2 2 2 3 3 3 4 4
5 5 5 4 4 3 3 3 2 1 1 0 -0 -0 -0 -0 -0 -0 -1 -1 -1 -0 -0 0 1 3 3 3 3 3 2 1 1 1 2 2 2 2 2 3 3 4 4
4 4 4 3 3 2 2 2 1 0 -1 -1 -1 -1 -1 -1 -1 -1 -1 -1 -1 -1 -0 0 1 2 2 2 2 1 1 0 1 2 2 2 1 1 2 2 2 3 3
3 3 3 2 2 1 1 1 0 -1 -1 -1 -1 -1 -1 -1 -1 -1 -1 -1 -1 -1 -0 -0 -0 0 1 1 1 0 0 0 1 1 1 2 1 2 1 1 1 1 1
2 2 2 1 1 1 0 -0 -0 -0 -1 -1 -1 -1 -1 -1 -1 -1 -1 -1 -0 -0 0 0 0 0 0 0 0 0 0 1 1 1 2 1 1 1 0 0 1 0 0
2 1 1 1 1 0 -0 -0 0 0 -0 -0 -0 -0 -0 -0 -1 -1 -1 -1 -1 -0 -0 -0 -0 -0 -0 0 1 1 1 1 2 1 1 1 1 1 0 -0 -0 0 1
1 0 0 0 0 0 -0 -0 0 0 0 0 0 -0 -0 -0 -1 -1 -1 -1 -1 -0 0 0 0 -0 -0 1 2 2 1 2 2 1 1 1 0 -0 -1 -1 -0 1 1
Wind_Speed
3 4 3 2 2 3 5 4 4 4 5 6 6 6 6 6 5 7 4 6 2 4 5 5 6 7 7 8 9 11 13 14 14 15 15 15 14 14 15 17 19 20 21
2 3 3 4 3 4 6 6 6 5 6 6 6 6 6 8 6 6 8 3 4 0 3 4 4 5 6 8 9 9 10 12 15 16 17 18 18 18 18 19 19 20 20
2 3 2 2 3 4 3 4 4 4 5 5 6 6 7 7 6 6 8 9 6 5 5 4 4 3 4 5 6 8 9 11 13 16 18 19 19 20 21 22 22 22 21
3 1 1 3 3 3 4 4 5 6 5 6 6 7 7 7 8 9 11 12 13 12 11 12 9 6 6 5 4 5 8 10 13 14 17 19 20 22 22 23 23 24 23
7 4 4 5 5 5 5 5 4 5 6 7 8 9 9 10 11 13 14 15 16 16 16 10 13 12 9 7 6 8 10 12 13 15 16 17 20 23 24 24 26 26 27
9 6 6 6 5 4 5 6 6 6 7 7 10 11 10 10 11 12 15 15 16 14 12 11 11 13 14 7 6 8 12 13 14 15 17 18 17 19 24 26 26 28 29
9 7 5 5 6 5 5 5 5 7 7 6 9 12 12 12 13 11 11 9 11 10 10 10 11 11 10 8 11 12 11 12 16 17 18 19 18 17 22 27 27 27 29
8 6 5 5 5 5 5 5 6 7 8 6 7 11 12 12 10 7 7 9 11 11 11 10 12 12 15 16 15 12 10 16 20 22 21 22 21 19 22 25 25 25 27
5 5 6 6 6 7 5 4 5 7 7 7 5 6 8 10 12 11 10 8 8 9 11 12 14 16 16 15 16 18 17 13 18 21 24 26 24 21 23 25 26 28 28
5 5 4 4 4 4 3 4 4 6 6 7 7 6 7 10 11 10 11 12 12 12 11 12 14 15 15 15 14 13 14 12 17 20 22 26 26 21 22 24 24 24 28
4 5 5 4 3 3 3 3 4 5 6 6 7 7 9 9 11 12 13 13 13 13 13 13 13 13 15 15 14 10 6 10 15 18 19 21 20 17 19 19 18 22 23
3 5 6 5 3 3 3 3 4 5 5 5 6 6 7 8 10 12 14 15 16 16 15 14 14 13 15 14 15 9 6 11 14 15 16 16 16 15 17 18 18 21 23
2 4 3 3 3 4 4 4 4 4 3 5 5 7 8 10 11 12 14 15 16 16 16 15 14 12 13 14 15 6 7 12 14 14 14 14 14 14 15 17 18 20 20
3 2 2 3 4 4 5 5 7 5 5 7 8 8 9 11 12 13 13 15 17 17 17 19 14 14 12 12 13 5 10 12 12 10 11 13 14 14 15 16 16 16 16
3 3 4 5 6 6 7 8 9 9 9 9 10 10 10 12 13 13 14 16 16 15 17 19 17 17 12 11 12 12 12 14 10 9 10 12 15 17 17 17 16 14 13
4 5 5 6 7 9 9 10 11 12 11 12 12 14 14 13 11 12 11 12 16 17 17 18 17 14 13 12 16 17 16 19 15 15 14 12 16 17 17 18 18 15 14
5 6 7 8 10 11 12 13 14 16 16 15 14 16 18 17 16 14 14 13 14 16 19 17 17 14 15 14 15 17 16 15 14 16 16 13 14 15 14 11 17 19 16
7 9 10 12 13 15 15 16 17 17 18 18 17 18 19 17 17 16 15 16 15 14 18 19 17 17 16 17 16 15 11 12 12 13 8 9 11 13 12 7 7 8 9
10 12 13 15 16 17 17 17 17 17 18 17 18 18 18 20 19 17 18 17 15 14 16 16 17 16 15 14 15 12 11 13 12 14 10 10 13 14 12 10 10 10 10
13 14 15 15 15 15 14 13 13 13 15 14 14 15 16 16 17 15 15 17 15 15 15 15 16 15 14 13 10 10 12 11 9 7 9 11 11 12 13 12 11 12 12
11 11 10 10 10 10 8 10 13 15 16 15 16 17 16 18 21 18 16 16 16 15 13 14 16 15 13 11 11 10 12 11 10 6 6 7 8 8 9 14 13 10 10
8 8 8 9 9 7 10 10 13 15 17 16 17 17 16 18 21 20 18 20 20 19 18 16 16 16 16 13 13 8 9 11 7 5 6 6 6 6 6 6 6 10 16
8 9 9 9 9 6 8 9 13 15 15 15 16 15 15 15 16 15 16 18 20 21 22 20 19 20 19 16 12 10 10 12 8 4 5 4 5 5 5 2 6 14 21
9 9 9 9 7 4 5 10 16 15 14 14 14 14 13 15 15 16 15 16 16 18 19 17 17 16 13 13 12 12 12 9 2 2 3 2 4 4 1 3 10 18 24
8 9 8 8 8 7 6 9 14 13 13 14 13 12 13 12 14 16 15 15 16 16 15 16 16 17 18 21 18 10 7 4 3 3 3 2 1 1 1 4 8 18 22
8 9 9 8 6 8 5 7 12 11 12 13 13 13 16 16 17 17 14 14 15 15 11 8 8 9 10 10 6 8 5 3 2 2 4 2 1 1 0 2 5 7 11
Wind_Direction
194 203 167 248 281 283 274 281 282 265 265 257 262 268 271 274 276 278 276 121 107 308 288 270 273 275 266 256 253 248 244 243 240 241 243 246 246 240 228 222 219 214 204
243 262 247 258 290 311 327 332 332 312 298 298 285 282 288 283 282 289 285 262 125 161 320 294 251 254 262 267 267 267 267 255 246 242 239 236 234 232 230 229 229 226 218
307 279 286 345 27 21 1 348 324 310 305 313 304 296 285 290 296 294 292 290 266 207 179 224 239 226 222 234 251 263 268 269 261 250 245 242 238 233 226 223 225 226 223
32 358 64 52 23 14 5 356 345 329 318 318 311 303 300 289 275 268 263 262 266 263 229 205 199 217 243 242 256 272 281 280 278 268 259 249 241 238 233 226 220 221 222
55 50 47 43 17 17 16 356 348 341 321 309 306 299 292 287 285 280 282 274 269 267 265 226 192 189 217 235 267 284 280 275 279 279 271 259 248 239 234 230 224 218 217
66 65 68 41 22 18 18 6 344 331 315 312 302 295 286 276 274 274 269 262 256 254 251 253 230 213 191 207 262 281 283 281 278 279 279 269 257 247 238 231 225 220 217
59 45 39 33 12 10 3 348 333 308 298 303 302 291 278 268 257 254 269 271 268 257 249 249 253 261 254 255 250 246 260 281 285 282 284 283 272 263 248 236 230 223 218
65 54 22 352 348 324 298 310 314 302 293 292 298 305 293 284 265 288 302 286 281 283 278 271 270 280 282 281 277 269 271 274 277 273 275 281 284 273 261 239 230 234 230
43 17 355 342 323 299 316 325 326 319 320 312 306 302 309 312 327 306 291 294 313 304 301 297 284 279 280 283 282 273 267 273 274 275 274 272 273 272 262 251 238 236 232
354 351 354 357 346 331 9 355 8 337 336 325 322 308 305 305 304 308 312 309 299 288 291 293 284 282 280 280 282 288 285 284 281 280 274 270 267 273 273 255 243 243 236
2 2 21 22 5 357 31 12 359 347 335 332 325 322 315 308 301 296 293 292 290 286 282 280 281 283 278 278 277 270 278 275 274 280 278 276 269 279 283 282 265 249 243
13 37 19 25 1 344 344 331 337 336 338 328 324 317 313 314 311 306 302 299 296 294 293 290 286 281 278 275 277 273 273 267 277 285 286 280 270 276 281 281 281 270 254
18 52 2 0 334 333 319 309 310 312 313 314 314 318 321 315 308 303 303 303 299 296 295 293 287 286 284 282 276 257 256 269 268 273 276 279 275 274 277 279 277 273 266
22 16 331 338 330 325 317 303 293 296 300 291 295 298 303 302 305 303 304 304 302 304 302 293 296 292 285 283 292 288 270 267 259 259 264 272 277 276 275 275 275 272 270
353 339 314 302 301 304 311 308 296 292 284 284 288 280 282 297 303 308 306 304 303 296 290 291 294 290 298 293 293 292 280 275 269 254 255 269 277 280 276 267 261 265 264
337 324 309 300 291 289 291 293 291 289 286 283 288 295 292 289 290 292 284 288 294 291 283 283 284 291 291 289 290 276 261 259 252 244 239 248 268 273 276 264 251 247 247
293 299 303 299 294 290 288 284 282 281 280 276 272 275 280 287 291 298 295 290 287 287 287 285 281 274 270 284 280 281 281 277 273 258 237 244 255 267 271 268 247 236 236
287 293 294 289 287 287 287 286 286 287 290 290 288 290 294 290 291 292 293 288 286 284 283 284 281 281 286 279 276 270 269 271 269 275 280 250 238 257 261 253 257 250 251
290 294 295 291 293 299 301 298 297 301 301 302 299 297 292 289 290 292 290 290 290 287 283 286 282 275 271 267 270 271 293 286 288 293 273 226 234 244 250 248 246 247 250
294 295 293 297 303 306 307 319 324 319 307 301 298 292 286 285 284 285 288 289 286 283 284 286 285 282 281 277 275 277 287 285 290 278 246 238 238 243 243 240 241 245 250
309 313 315 315 318 320 359 351 323 311 308 307 301 294 293 298 300 290 280 281 286 286 283 282 281 280 281 286 283 291 294 300 289 241 225 227 228 236 231 226 231 247 268
336 334 333 328 329 344 38 355 325 314 311 310 307 303 299 293 290 284 280 277 276 280 283 283 286 286 285 289 291 291 283 283 270 212 215 220 217 239 249 256 313 310 290
342 336 331 330 328 0 37 341 326 317 312 302 299 300 302 299 298 298 293 289 284 279 275 273 273 274 278 281 291 278 263 266 259 190 202 216 207 242 229 267 308 301 293
340 338 333 328 326 16 22 339 332 317 308 305 302 301 299 295 296 296 295 289 283 277 271 267 266 272 282 283 268 259 259 264 237 160 198 222 203 237 10 333 327 319 307
347 335 332 336 342 339 359 351 332 322 313 310 312 308 299 288 284 282 284 283 280 277 265 253 261 271 273 270 260 249 236 209 196 178 175 224 172 329 311 345 331 327 327
352 343 342 334 327 319 357 9 337 326 314 315 311 305 303 297 291 288 289 288 286 290 299 301 287 280 289 297 257 219 213 200 188 193 175 195 157 152 318 23 334 346 343
Height
1563 1564 1565 1565 1566 1567 1567 1566 1566 1564 1563 1563 1562 1562 1561 1561 1560 1558 1558 1556 1555 1555 1554 1554 1554 1554 1555 1554 1554 1553 1553 1553 1553 1553 1554 1554 1555 1556 1556 1556 1557 1559 1560
1563 1563 1564 1564 1564 1564 1564 1563 1563 1562 1563 1562 1561 1560 1559 1558 1557 1555 1554 1553 1550 1549 1549 1549 1549 1548 1548 1548 1547 1547 1546 1546 1547 1547 1547 1548 1550 1551 1552 1552 1552 1553 1554
1560 1560 1562 1562 1561 1560 1560 1559 1559 1560 1559 1558 1557 1556 1554 1553 1552 1550 1548 1548 1547 1544 1542 1541 1541 1540 1540 1540 1540 1539 1539 1539 1540 1541 1541 1541 1542 1544 1546 1546 1546 1546 1547
1558 1558 1559 1559 1557 1557 1557 1556 1556 1556 1556 1554 1552 1550 1549 1547 1544 1542 1541 1539 1539 1539 1537 1533 1531 1532 1532 1531 1530 1530 1530 1531 1532 1532 1533 1534 1535 1536 1538 1539 1539 1539 1539
1556 1557 1557 1555 1555 1555 1553 1553 1553 1551 1551 1549 1547 1546 1544 1542 1540 1538 1536 1533 1532 1531 1530 1528 1522 1522 1521 1521 1520 1520 1521 1521 1522 1523 1524 1525 1526 1528 1529 1530 1531 1531 1532
1554 1554 1553 1553 1553 1551 1549 1549 1548 1548 1546 1543 1541 1540 1537 1534 1530 1528 1526 1524 1522 1521 1521 1520 1517 1515 1513 1511 1511 1510 1511 1511 1511 1512 1514 1515 1515 1518 1520 1521 1522 1523 1524
1552 1552 1552 1550 1549 1548 1546 1545 1543 1542 1541 1538 1535 1533 1531 1528 1524 1521 1521 1520 1518 1516 1515 1514 1511 1511 1509 1505 1503 1502 1501 1501 1503 1504 1504 1505 1505 1507 1510 1512 1513 1515 1516
1549 1549 1548 1547 1545 1544 1543 1541 1539 1537 1535 1534 1531 1528 1525 1522 1519 1519 1515 1515 1514 1512 1509 1507 1506 1504 1501 1499 1497 1497 1494 1494 1495 1495 1496 1496 1496 1498 1500 1502 1504 1506 1508
1546 1544 1543 1541 1540 1540 1539 1536 1535 1533 1531 1530 1528 1527 1524 1519 1517 1515 1512 1512 1509 1508 1504 1501 1501 1499 1496 1493 1491 1490 1489 1487 1486 1485 1486 1487 1488 1489 1491 1493 1494 1496 1498
1542 1540 1538 1536 1534 1535 1534 1533 1532 1530 1529 1527 1527 1525 1524 1522 1519 1513 1511 1509 1507 1503 1499 1496 1495 1493 1490 1488 1485 1482 1481 1480 1479 1477 1476 1477 1480 1481 1483 1485 1486 1488 1490
1541 1538 1534 1533 1533 1532 1530 1528 1527 1526 1525 1524 1524 1523 1521 1518 1517 1514 1510 1507 1504 1500 1495 1491 1490 1487 1484 1481 1479 1476 1474 1473 1473 1471 1470 1470 1471 1472 1475 1477 1478 1481 1483
1538 1536 1532 1531 1532 1531 1529 1527 1525 1524 1522 1521 1521 1519 1517 1516 1513 1511 1507 1503 1500 1496 1491 1487 1484 1481 1478 1476 1473 1471 1468 1467 1467 1466 1465 1465 1465 1465 1467 1469 1471 1473 1475
1533 1532 1530 1529 1530 1528 1526 1526 1524 1521 1520 1521 1520 1518 1516 1515 1511 1508 1503 1498 1494 1490 1486 1482 1479 1476 1473 1470 1468 1464 1462 1461 1461 1459 1459 1458 1458 1459 1461 1462 1463 1465 1467
1530 1529 1528 1528 1527 1526 1526 1525 1523 1520 1519 1519 1518 1514 1512 1512 1509 1506 1500 1495 1490 1486 1482 1478 1475 1472 1468 1464 1462 1459 1457 1456 1455 1453 1452 1452 1453 1452 1453 1455 1456 1457 1459
1530 1529 1527 1526 1526 1525 1525 1523 1522 1519 1518 1516 1514 1511 1508 1505 1503 1500 1496 1492 1488 1482 1477 1474 1471 1467 1464 1460 1458 1455 1452 1452 1450 1448 1447 1446 1446 1447 1447 1447 1447 1449 1451
1528 1527 1526 1525 1525 1524 1522 1520 1519 1518 1515 1512 1510 1507 1503 1499 1497 1493 1490 1487 1483 1478 1471 1469 1465 1462 1459 1457 1453 1450 1448 1447 1445 1443 1441 1440 1440 1440 1440 1440 1441 1441 1443
1527 1527 1525 1525 1524 1522 1520 1517 1515 1514 1510 1505 1502 1500 1496 1493 1490 1487 1484 1481 1477 1473 1467 1462 1460 1457 1454 1452 1448 1445 1443 1441 1439 1437 1435 1433 1432 1432 1432 1433 1433 1435 1436
1526 1525 1524 1522 1520 1518 1515 1512 1509 1507 1504 1499 1496 1493 1490 1486 1483 1480 1477 1473 1469 1466 1462 1455 1453 1451 1448 1445 1441 1438 1437 1436 1434 1432 1428 1425 1424 1423 1424 1424 1426 1428 1429
1524 1523 1521 1519 1515 1512 1509 1506 1503 1500 1496 1491 1488 1485 1481 1478 1475 1472 1469 1465 1462 1458 1454 1450 1446 1444 1440 1438 1435 1434 1431 1429 1427 1423 1420 1417 1416 1417 1416 1417 1419 1421 1422
1521 1518 1516 1514 1510 1506 1503 1499 1495 1491 1488 1484 1480 1476 1473 1470 1467 1464 1461 1458 1455 1451 1447 1443 1439 1436 1434 1432 1430 1427 1425 1422 1418 1416 1413 1412 1411 1411 1411 1412 1413 1413 1414
1517 1513 1510 1507 1505 1501 1497 1493 1489 1485 1481 1477 1472 1469 1465 1462 1459 1457 1454 1450 1447 1443 1440 1436 1433 1430 1428 1426 1424 1421 1419 1415 1411 1409 1408 1407 1407 1407 1407 1407 1406 1405 1404
1513 1509 1505 1503 1500 1497 1492 1488 1483 1478 1474 1470 1465 1461 1457 1453 1451 1449 1447 1443 1441 1437 1433 1431 1427 1424 1422 1420 1418 1415 1412 1409 1407 1405 1404 1403 1403 1402 1403 1402 1399 1396 1394
1509 1505 1502 1500 1497 1494 1489 1485 1479 1474 1469 1464 1460 1456 1452 1448 1445 1442 1439 1436 1433 1430 1427 1424 1420 1417 1414 1413 1410 1407 1405 1404 1403 1401 1401 1400 1399 1399 1399 1396 1391 1387 1382
1506 1502 1500 1498 1495 1492 1487 1481 1475 1470 1466 1462 1457 1452 1446 1441 1438 1435 1431 1428 1425 1421 1418 1415 1412 1409 1406 1403 1401 1400 1399 1399 1398 1397 1396 1395 1395 1395 1393 1389 1384 1378 1372
1504 1501 1499 1496 1493 1490 1485 1479 1473 1468 1463 1458 1453 1448 1441 1437 1433 1430 1425 1421 1417 1413 1411 1408 1404 1401 1397 1394 1393 1394 1395 1395 1394 1393 1392 1391 1390 1389 1387 1383 1378 1372 1366
1502 1499 1496 1494 1491 1487 1484 1478 1472 1465 1460 1454 1448 1442 1437 1432 1427 1423 1419 1415 1411 1408 1405 1402 1398 1395 1393 1389 1388 1390 1391 1391 1391 1390 1389 1389 1387 1386 1383 1380 1374 1368 1364